OneWeb SL0421

operational
NORAD ID: 50496 Int'l Des: 2021-132 Owner: ONEWEBN Country: UK Constellation: oneweb
LEOCIRCULARPOLARONEWEB_TYPE

OneWeb SL0421について

説明を読み込み中...

リアルタイム位置

3D地球を読み込み中...

次回通過

高度履歴

Altitude vs Time

uPlot chart will show altitude changes over time

軌道要素

1 50496U 21132AD 26073.47161003 .00000129 00000-0 29463-3 0 9992
2 50496 87.9251 354.2707 0001505 81.1302 279.0001 13.18686478209138
Epoch: Mar 14, 2026 • Age: 7 hours

現在のステータス

高度 1198.0 km
速度 7.25 km/s
衛星直下点 -21.22°S, 96.42°W
打ち上げ日 Dec 27, 2021
運用期間 4.2 years
タイプ internet

技術仕様

分類 Payload
質量 148.00 kg
乾燥質量 140.00 kg
総質量 148.00 kg
長さ 1.30 m
直径 1.00 m
スパン 5.00 m
形状 Trapezoid+2 pan
製造者 ONEWUS
バスタイプ ARROW
フェーズステータス In Orbit
所有者/国 ONEWEBN/UK

大規模コンステレーション

Loading constellations...